DW6044 Weather Reports


time (UTC)temp
C
wind
direction
speed
KPH
gust
KPH
rain 1hr
cm
rain 24hr
cm
rain mn
cm
humidity
%
barometer
mb
20260505140603 5 0 0.0 0.0 0.00 0.00 0.00 67 1015.9
20260505140403 21 290 1.6 8.0 0.00 0.00 0.00 51 1012.5
20260505140204 5 0 0.0 0.0 0.00 0.00 0.00 67 1015.9
20260505130203 5 0 0.0 0.0 0.00 0.00 0.00 67 1015.9
20260505125003 5 0 0.0 0.0 0.00 0.00 0.00 67 1015.9
20260505124902 16 262 0.0 0.0 0.00 0.00 0.00 65 1013.2
20260505124804 5 0 0.0 0.0 0.00 0.00 0.00 67 1015.9
20260505124603 5 0 0.0 0.0 0.00 0.00 0.00 67 1015.9
20260505124404 5 0 0.0 0.0 0.00 0.00 0.00 67 1015.9
20260505124203 5 0 0.0 0.0 0.00 0.00 0.00 67 1015.9
20260505124003 5 0 0.0 0.0 0.00 0.00 0.00 67 1015.9
20260505123903 16 296 0.0 3.2 0.00 0.00 0.00 64 1013.1
20260505123804 5 0 0.0 0.0 0.00 0.00 0.00 67 1015.9
20260505123604 5 0 0.0 0.0 0.00 0.00 0.00 67 1015.9
20260505123403 16 222 0.0 0.0 0.00 0.00 0.00 65 1013.2
20260505123204 5 0 0.0 0.0 0.00 0.00 0.00 67 1015.9
20260505122902 15 222 0.0 0.0 0.00 0.00 0.00 66 1013.0
20260505122805 5 0 0.0 0.0 0.00 0.00 0.00 67 1015.9
20260505122603 5 0 0.0 0.0 0.00 0.00 0.00 67 1015.9
20260505122403 5 0 0.0 0.0 0.00 0.00 0.00 67 1015.9
20260505122004 5 0 0.0 0.0 0.00 0.00 0.00 67 1015.9
20260505121903 15 209 0.0 3.2 0.00 0.00 0.00 66 1013.1
20260505121603 5 0 0.0 0.0 0.00 0.00 0.00 67 1015.9
20260505121404 5 0 0.0 0.0 0.00 0.00 0.00 67 1015.9
20260505121204 5 0 0.0 0.0 0.00 0.00 0.00 67 1015.9
20260505121003 5 0 0.0 0.0 0.00 0.00 0.00 67 1015.9
20260505120804 5 0 0.0 0.0 0.00 0.00 0.00 67 1015.9
20260505120403 14 204 0.0 1.6 0.00 0.00 0.00 68 1012.9
20260505120003 5 0 0.0 0.0 0.00 0.00 0.00 67 1015.9
20260505115903 14 202 0.0 3.2 0.00 0.00 0.00 70 1012.9
20260505115803 5 0 0.0 0.0 0.00 0.00 0.00 67 1015.9
20260505115603 5 0 0.0 0.0 0.00 0.00 0.00 67 1015.9
20260505115403 14 322 0.0 0.0 0.00 0.00 0.00 70 1012.9
20260505115204 5 0 0.0 0.0 0.00 0.00 0.00 67 1015.9
20260505114903 13 323 0.0 3.2 0.00 0.00 0.00 70 1012.8
20260505114803 5 0 0.0 0.0 0.00 0.00 0.00 67 1015.9
20260505114605 5 0 0.0 0.0 0.00 0.00 0.00 67 1015.9
20260505114403 13 259 0.0 0.0 0.00 0.00 0.00 70 1012.8
20260505114203 5 0 0.0 0.0 0.00 0.00 0.00 67 1015.9
20260505114004 5 0 0.0 0.0 0.00 0.00 0.00 67 1015.9
20260505113903 13 259 0.0 0.0 0.00 0.00 0.00 71 1012.8
20260505113803 5 0 0.0 0.0 0.00 0.00 0.00 67 1015.9
20260505113604 5 0 0.0 0.0 0.00 0.00 0.00 67 1015.9
20260505113403 5 0 0.0 0.0 0.00 0.00 0.00 67 1015.9
20260505113203 5 0 0.0 0.0 0.00 0.00 0.00 67 1015.9
20260505113003 5 0 0.0 0.0 0.00 0.00 0.00 67 1015.9
20260505112603 5 0 0.0 0.0 0.00 0.00 0.00 67 1015.9
20260505112404 5 0 0.0 0.0 0.00 0.00 0.00 67 1015.9
20260505112203 5 0 0.0 0.0 0.00 0.00 0.00 67 1015.9
20260505112004 5 0 0.0 0.0 0.00 0.00 0.00 67 1015.9
20260505111604 5 0 0.0 0.0 0.00 0.00 0.00 67 1015.9
20260505111403 12 261 0.0 0.0 0.00 0.00 0.00 78 1012.6
20260505111204 5 0 0.0 0.0 0.00 0.00 0.00 67 1015.9
20260505111003 5 0 0.0 0.0 0.00 0.00 0.00 67 1015.9
20260505110903 12 261 0.0 0.0 0.00 0.00 0.00 81 1012.5
20260505110804 5 0 0.0 0.0 0.00 0.00 0.00 67 1015.9
20260505110603 5 0 0.0 0.0 0.00 0.00 0.00 67 1015.9
20260505110403 11 260 0.0 0.0 0.00 0.00 0.00 81 1012.4
20260505110205 5 0 0.0 0.0 0.00 0.00 0.00 67 1015.9
20260505101803 5 0 0.0 0.0 0.00 0.00 0.00 67 1015.9
20260505101603 5 0 0.0 0.0 0.00 0.00 0.00 67 1015.9
20260505101403 12 162 0.0 0.0 0.00 0.00 0.00 75 1011.8
20260505101203 5 0 0.0 0.0 0.00 0.00 0.00 67 1015.9
20260505101003 5 0 0.0 0.0 0.00 0.00 0.00 67 1015.9
20260505100903 12 162 0.0 0.0 0.00 0.00 0.00 76 1011.8
20260505100803 5 0 0.0 0.0 0.00 0.00 0.00 67 1015.9
20260505100603 5 0 0.0 0.0 0.00 0.00 0.00 67 1015.9
20260505100403 5 0 0.0 0.0 0.00 0.00 0.00 67 1015.9
20260505100203 5 0 0.0 0.0 0.00 0.00 0.00 67 1015.9
20260505095903 12 189 0.0 0.0 0.00 0.00 0.00 74 1011.7
20260505095804 5 0 0.0 0.0 0.00 0.00 0.00 67 1015.9
20260505095603 5 0 0.0 0.0 0.00 0.00 0.00 67 1015.9
20260505095204 5 0 0.0 0.0 0.00 0.00 0.00 67 1015.9
20260505095003 5 0 0.0 0.0 0.00 0.00 0.00 67 1015.9
20260505094903 11 195 0.0 0.0 0.00 0.00 0.00 75 1011.7
20260505094804 5 0 0.0 0.0 0.00 0.00 0.00 67 1015.9
20260505094603 5 0 0.0 0.0 0.00 0.00 0.00 67 1015.9
20260505094404 5 0 0.0 0.0 0.00 0.00 0.00 67 1015.9
20260505094203 5 0 0.0 0.0 0.00 0.00 0.00 67 1015.9
20260505094004 5 0 0.0 0.0 0.00 0.00 0.00 67 1015.9
20260505093804 5 0 0.0 0.0 0.00 0.00 0.00 67 1015.9
20260505093403 11 117 0.0 0.0 0.00 0.00 0.00 76 1011.7
20260505093205 5 0 0.0 0.0 0.00 0.00 0.00 67 1015.9
20260505093003 5 0 0.0 0.0 0.00 0.00 0.00 67 1015.9
20260505092903 11 117 0.0 0.0 0.00 0.00 0.00 77 1011.7
20260505092803 5 0 0.0 0.0 0.00 0.00 0.00 67 1015.9
20260505092405 5 0 0.0 0.0 0.00 0.00 0.00 67 1015.9
20260505092203 5 0 0.0 0.0 0.00 0.00 0.00 67 1015.9
20260505092004 5 0 0.0 0.0 0.00 0.00 0.00 67 1015.9
20260505091903 11 117 0.0 0.0 0.00 0.00 0.00 76 1011.6
20260505091604 5 0 0.0 0.0 0.00 0.00 0.00 67 1015.9
20260505091403 5 0 0.0 0.0 0.00 0.00 0.00 67 1015.9
20260505090903 11 117 0.0 0.0 0.00 0.00 0.00 77 1011.6
20260505090403 11 117 0.0 0.0 0.00 0.00 0.00 78 1011.6
20260505090204 5 0 0.0 0.0 0.00 0.00 0.00 67 1015.9
20260505090003 5 0 0.0 0.0 0.00 0.00 0.00 67 1015.9
20260505085903 11 117 0.0 0.0 0.00 0.00 0.00 77 1011.6
20260505085404 5 0 0.0 0.0 0.00 0.00 0.00 67 1015.9
20260505085203 5 0 0.0 0.0 0.00 0.00 0.00 67 1015.9
20260505084903 11 117 0.0 0.0 0.00 0.00 0.00 77 1011.7
20260505084603 5 0 0.0 0.0 0.00 0.00 0.00 67 1015.9
20260505084403 5 0 0.0 0.0 0.00 0.00 0.00 67 1015.9
20260505084203 5 0 0.0 0.0 0.00 0.00 0.00 67 1015.9
20260505084003 5 0 0.0 0.0 0.00 0.00 0.00 67 1015.9
20260505083803 5 0 0.0 0.0 0.00 0.00 0.00 67 1015.9
20260505083603 5 0 0.0 0.0 0.00 0.00 0.00 67 1015.9
20260505083403 5 0 0.0 0.0 0.00 0.00 0.00 67 1015.9
20260505083003 5 0 0.0 0.0 0.00 0.00 0.00 67 1015.9
20260505082904 11 117 0.0 0.0 0.00 0.00 0.00 79 1011.6
20260505082805 5 0 0.0 0.0 0.00 0.00 0.00 67 1015.9
20260505082603 5 0 0.0 0.0 0.00 0.00 0.00 67 1015.9
20260505082403 5 0 0.0 0.0 0.00 0.00 0.00 67 1015.9
20260505082203 5 0 0.0 0.0 0.00 0.00 0.00 67 1015.9
20260505082004 5 0 0.0 0.0 0.00 0.00 0.00 67 1015.9
20260505081904 11 117 0.0 0.0 0.00 0.00 0.00 80 1011.6
20260505081803 5 0 0.0 0.0 0.00 0.00 0.00 67 1015.9
20260505081604 5 0 0.0 0.0 0.00 0.00 0.00 67 1015.9
20260505081403 5 0 0.0 0.0 0.00 0.00 0.00 67 1015.9
20260505081203 5 0 0.0 0.0 0.00 0.00 0.00 67 1015.9
20260505081003 5 0 0.0 0.0 0.00 0.00 0.00 67 1015.9
20260505080904 11 117 0.0 0.0 0.00 0.00 0.00 78 1011.7
20260505080805 5 0 0.0 0.0 0.00 0.00 0.00 67 1015.9
20260505080604 5 0 0.0 0.0 0.00 0.00 0.00 67 1015.9
20260505080404 5 0 0.0 0.0 0.00 0.00 0.00 67 1015.9
20260505080203 5 0 0.0 0.0 0.00 0.00 0.00 67 1015.9
20260505080005 5 0 0.0 0.0 0.00 0.00 0.00 67 1015.9
20260505075803 5 0 0.0 0.0 0.00 0.00 0.00 67 1015.9
20260505075603 5 0 0.0 0.0 0.00 0.00 0.00 67 1015.9
20260505075203 5 0 0.0 0.0 0.00 0.00 0.00 67 1015.9
20260505075003 5 0 0.0 0.0 0.00 0.00 0.00 67 1015.9
20260505074603 5 0 0.0 0.0 0.00 0.00 0.00 67 1015.9
20260505074404 5 0 0.0 0.0 0.00 0.00 0.00 67 1015.9
20260505074203 5 0 0.0 0.0 0.00 0.00 0.00 67 1015.9
20260505074005 5 0 0.0 0.0 0.00 0.00 0.00 67 1015.9
20260505073903 11 117 0.0 0.0 0.00 0.00 0.00 78 1011.7
20260505073803 5 0 0.0 0.0 0.00 0.00 0.00 67 1015.9
20260505073603 5 0 0.0 0.0 0.00 0.00 0.00 67 1015.9
20260505073403 11 117 0.0 0.0 0.00 0.00 0.00 78 1011.6
20260505073203 5 0 0.0 0.0 0.00 0.00 0.00 67 1015.9
20260505073003 5 0 0.0 0.0 0.00 0.00 0.00 67 1015.9
20260505072903 11 117 0.0 0.0 0.00 0.00 0.00 78 1011.5
20260505072604 5 0 0.0 0.0 0.00 0.00 0.00 67 1015.9
20260505072403 11 117 0.0 0.0 0.00 0.00 0.00 78 1011.7
20260505072005 5 0 0.0 0.0 0.00 0.00 0.00 67 1015.9
20260505071803 5 0 0.0 0.0 0.00 0.00 0.00 67 1015.9
20260505071604 5 0 0.0 0.0 0.00 0.00 0.00 67 1015.9
20260505071404 5 0 0.0 0.0 0.00 0.00 0.00 67 1015.9
20260505071203 5 0 0.0 0.0 0.00 0.00 0.00 67 1015.9
20260505071003 5 0 0.0 0.0 0.00 0.00 0.00 67 1015.9
20260505070903 12 117 0.0 0.0 0.00 0.00 0.00 77 1011.5
20260505070603 5 0 0.0 0.0 0.00 0.00 0.00 67 1015.9
20260505070404 5 0 0.0 0.0 0.00 0.00 0.00 67 1015.9
20260505070203 5 0 0.0 0.0 0.00 0.00 0.00 67 1015.9
20260505070004 5 0 0.0 0.0 0.00 0.00 0.00 67 1015.9
20260505065903 12 117 0.0 0.0 0.00 0.00 0.00 74 1011.4
20260505065803 5 0 0.0 0.0 0.00 0.00 0.00 67 1015.9
20260505065603 5 0 0.0 0.0 0.00 0.00 0.00 67 1015.9
20260505065404 5 0 0.0 0.0 0.00 0.00 0.00 67 1015.9
20260505065004 5 0 0.0 0.0 0.00 0.00 0.00 67 1015.9
20260505064903 12 117 0.0 0.0 0.00 0.00 0.00 75 1011.3
20260505064804 5 0 0.0 0.0 0.00 0.00 0.00 67 1015.9
20260505064603 5 0 0.0 0.0 0.00 0.00 0.00 67 1015.9
20260505064404 5 0 0.0 0.0 0.00 0.00 0.00 67 1015.9
20260505064205 5 0 0.0 0.0 0.00 0.00 0.00 67 1015.9
20260505064003 5 0 0.0 0.0 0.00 0.00 0.00 67 1015.9
20260505063904 12 117 0.0 0.0 0.00 0.00 0.00 76 1011.4
20260505063804 5 0 0.0 0.0 0.00 0.00 0.00 67 1015.9
20260505063603 5 0 0.0 0.0 0.00 0.00 0.00 67 1015.9
20260505063404 5 0 0.0 0.0 0.00 0.00 0.00 67 1015.9
20260505063204 5 0 0.0 0.0 0.00 0.00 0.00 67 1015.9
20260505063004 5 0 0.0 0.0 0.00 0.00 0.00 67 1015.9
20260505062903 12 117 0.0 0.0 0.00 0.00 0.00 77 1011.5
20260505062803 5 0 0.0 0.0 0.00 0.00 0.00 67 1015.9
20260505062604 5 0 0.0 0.0 0.00 0.00 0.00 67 1015.9
20260505062403 5 0 0.0 0.0 0.00 0.00 0.00 67 1015.9
20260505062003 5 0 0.0 0.0 0.00 0.00 0.00 67 1015.9
20260505061905 12 117 0.0 0.0 0.00 0.00 0.00 76 1011.5
20260505061804 5 0 0.0 0.0 0.00 0.00 0.00 67 1015.9
20260505061604 5 0 0.0 0.0 0.00 0.00 0.00 67 1015.9
20260505061403 5 0 0.0 0.0 0.00 0.00 0.00 67 1015.9
20260505061203 5 0 0.0 0.0 0.00 0.00 0.00 67 1015.9
20260505060803 5 0 0.0 0.0 0.00 0.00 0.00 67 1015.9
20260505060603 5 0 0.0 0.0 0.00 0.00 0.00 67 1015.9
20260505060405 5 0 0.0 0.0 0.00 0.00 0.00 67 1015.9
20260505060203 5 0 0.0 0.0 0.00 0.00 0.00 67 1015.9
20260505060005 5 0 0.0 0.0 0.00 0.00 0.00 67 1015.9
20260505055903 13 117 0.0 0.0 0.00 0.00 0.00 71 1011.6
20260505055803 5 0 0.0 0.0 0.00 0.00 0.00 67 1015.9
20260505055604 5 0 0.0 0.0 0.00 0.00 0.00 67 1015.9
20260505055403 5 0 0.0 0.0 0.00 0.00 0.00 67 1015.9
20260505055204 5 0 0.0 0.0 0.00 0.00 0.00 67 1015.9
20260505054804 5 0 0.0 0.0 0.00 0.00 0.00 67 1015.9
20260505054405 5 0 0.0 0.0 0.00 0.00 0.00 67 1015.9
20260505053903 13 117 0.0 0.0 0.00 0.00 0.00 70 1011.7
20260505053804 5 0 0.0 0.0 0.00 0.00 0.00 67 1015.9
20260505053603 5 0 0.0 0.0 0.00 0.00 0.00 67 1015.9
20260505053403 5 0 0.0 0.0 0.00 0.00 0.00 67 1015.9
20260505053204 5 0 0.0 0.0 0.00 0.00 0.00 67 1015.9
20260505053003 5 0 0.0 0.0 0.00 0.00 0.00 67 1015.9
20260505052903 13 117 0.0 0.0 0.00 0.00 0.00 72 1011.8
20260505052804 5 0 0.0 0.0 0.00 0.00 0.00 67 1015.9
20260505052404 5 0 0.0 0.0 0.00 0.00 0.00 67 1015.9
20260505052203 5 0 0.0 0.0 0.00 0.00 0.00 67 1015.9
20260505052004 5 0 0.0 0.0 0.00 0.00 0.00 67 1015.9
20260505051803 5 0 0.0 0.0 0.00 0.00 0.00 67 1015.9
20260505051604 5 0 0.0 0.0 0.00 0.00 0.00 67 1015.9
20260505051403 13 117 0.0 0.0 0.00 0.00 0.00 73 1011.8
20260505051204 5 0 0.0 0.0 0.00 0.00 0.00 67 1015.9
20260505051003 5 0 0.0 0.0 0.00 0.00 0.00 67 1015.9
20260505050903 13 117 0.0 0.0 0.00 0.00 0.00 71 1011.8
20260505050804 5 0 0.0 0.0 0.00 0.00 0.00 67 1015.9
20260505050405 5 0 0.0 0.0 0.00 0.00 0.00 67 1015.9
20260505050203 5 0 0.0 0.0 0.00 0.00 0.00 67 1015.9
20260505041404 5 0 0.0 0.0 0.00 0.00 0.00 67 1015.9
20260505041204 5 0 0.0 0.0 0.00 0.00 0.00 67 1015.9
20260505040905 12 117 0.0 0.0 0.00 0.00 0.00 73 1011.4
20260505040603 5 0 0.0 0.0 0.00 0.00 0.00 67 1015.9
20260505040403 5 0 0.0 0.0 0.00 0.00 0.00 67 1015.9
20260505040204 5 0 0.0 0.0 0.00 0.00 0.00 67 1015.9
20260505040005 5 0 0.0 0.0 0.00 0.00 0.00 67 1015.9
20260505035903 12 117 0.0 0.0 0.00 0.00 0.00 74 1011.3
20260505035803 5 0 0.0 0.0 0.00 0.00 0.00 67 1015.9
20260505035604 5 0 0.0 0.0 0.00 0.00 0.00 67 1015.9
20260505035403 5 0 0.0 0.0 0.00 0.00 0.00 67 1015.9
20260505035204 5 0 0.0 0.0 0.00 0.00 0.00 67 1015.9
20260505035003 5 0 0.0 0.0 0.00 0.00 0.00 67 1015.9
20260505034903 12 117 0.0 0.0 0.00 0.00 0.00 72 1011.4
20260505034603 5 0 0.0 0.0 0.00 0.00 0.00 67 1015.9
20260505034404 5 0 0.0 0.0 0.00 0.00 0.00 67 1015.9
20260505034203 5 0 0.0 0.0 0.00 0.00 0.00 67 1015.9
20260505034004 5 0 0.0 0.0 0.00 0.00 0.00 67 1015.9
20260505033903 12 117 0.0 0.0 0.00 0.00 0.00 73 1011.3
20260505033803 5 0 0.0 0.0 0.00 0.00 0.00 67 1015.9
20260505033604 5 0 0.0 0.0 0.00 0.00 0.00 67 1015.9
20260505033204 5 0 0.0 0.0 0.00 0.00 0.00 67 1015.9
20260505033003 5 0 0.0 0.0 0.00 0.00 0.00 67 1015.9
20260505032905 12 117 0.0 0.0 0.00 0.00 0.00 72 1011.3
20260505032804 5 0 0.0 0.0 0.00 0.00 0.00 67 1015.9
20260505032603 5 0 0.0 0.0 0.00 0.00 0.00 67 1015.9
20260505032404 5 0 0.0 0.0 0.00 0.00 0.00 67 1015.9
20260505032203 5 0 0.0 0.0 0.00 0.00 0.00 67 1015.9
20260505032004 5 0 0.0 0.0 0.00 0.00 0.00 67 1015.9
20260505031903 12 117 0.0 0.0 0.00 0.00 0.00 71 1011.4
20260505031604 5 0 0.0 0.0 0.00 0.00 0.00 67 1015.9
20260505031404 5 0 0.0 0.0 0.00 0.00 0.00 67 1015.9
20260505031203 5 0 0.0 0.0 0.00 0.00 0.00 67 1015.9
20260505030904 13 117 0.0 0.0 0.00 0.00 0.00 71 1011.5
20260505030803 5 0 0.0 0.0 0.00 0.00 0.00 67 1015.9
20260505030604 5 0 0.0 0.0 0.00 0.00 0.00 67 1015.9
20260505030403 13 117 0.0 0.0 0.00 0.00 0.00 70 1011.5
20260505030204 5 0 0.0 0.0 0.00 0.00 0.00 67 1015.9
20260505030003 5 0 0.0 0.0 0.00 0.00 0.00 67 1015.9
20260505025903 13 117 0.0 0.0 0.00 0.00 0.00 70 1011.5
20260505025803 5 0 0.0 0.0 0.00 0.00 0.00 67 1015.9
20260505025603 5 0 0.0 0.0 0.00 0.00 0.00 67 1015.9
20260505025404 5 0 0.0 0.0 0.00 0.00 0.00 67 1015.9
20260505025004 5 0 0.0 0.0 0.00 0.00 0.00 67 1015.9
20260505024903 13 117 0.0 0.0 0.00 0.00 0.00 71 1011.4
20260505024803 5 0 0.0 0.0 0.00 0.00 0.00 67 1015.9
20260505024605 5 0 0.0 0.0 0.00 0.00 0.00 67 1015.9
20260505024403 13 117 0.0 0.0 0.00 0.00 0.00 71 1011.4
20260505024203 5 0 0.0 0.0 0.00 0.00 0.00 67 1015.9
20260505023904 13 117 0.0 0.0 0.00 0.00 0.00 71 1011.4
20260505023803 5 0 0.0 0.0 0.00 0.00 0.00 67 1015.9
20260505023604 5 0 0.0 0.0 0.00 0.00 0.00 67 1015.9
20260505023403 13 117 0.0 0.0 0.00 0.00 0.00 70 1011.4
20260505023205 5 0 0.0 0.0 0.00 0.00 0.00 67 1015.9
20260505023003 5 0 0.0 0.0 0.00 0.00 0.00 67 1015.9
20260505022904 13 117 0.0 0.0 0.00 0.00 0.00 70 1011.4
20260505022804 5 0 0.0 0.0 0.00 0.00 0.00 67 1015.9
20260505022604 5 0 0.0 0.0 0.00 0.00 0.00 67 1015.9
20260505022404 5 0 0.0 0.0 0.00 0.00 0.00 67 1015.9
20260505022204 5 0 0.0 0.0 0.00 0.00 0.00 67 1015.9
20260505022004 5 0 0.0 0.0 0.00 0.00 0.00 67 1015.9
20260505021904 13 117 0.0 0.0 0.00 0.00 0.00 68 1011.4
20260505021804 5 0 0.0 0.0 0.00 0.00 0.00 67 1015.9
20260505021603 5 0 0.0 0.0 0.00 0.00 0.00 67 1015.9
20260505021404 13 117 0.0 0.0 0.00 0.00 0.00 68 1011.5
20260505021004 5 0 0.0 0.0 0.00 0.00 0.00 67 1015.9
20260505020904 13 117 0.0 0.0 0.00 0.00 0.00 68 1011.5
20260505020803 5 0 0.0 0.0 0.00 0.00 0.00 67 1015.9
20260505020604 5 0 0.0 0.0 0.00 0.00 0.00 67 1015.9
20260505015903 13 117 0.0 0.0 0.00 0.00 0.00 67 1011.6
20260505015804 5 0 0.0 0.0 0.00 0.00 0.00 67 1015.9
20260505015603 5 0 0.0 0.0 0.00 0.00 0.00 67 1015.9
20260505015203 5 0 0.0 0.0 0.00 0.00 0.00 67 1015.9
20260505015005 5 0 0.0 0.0 0.00 0.00 0.00 67 1015.9
20260505014903 13 117 0.0 0.0 0.00 0.00 0.00 67 1011.5
20260505014803 5 0 0.0 0.0 0.00 0.00 0.00 67 1015.9
20260505014604 5 0 0.0 0.0 0.00 0.00 0.00 67 1015.9
20260505014403 13 117 0.0 0.0 0.00 0.00 0.00 67 1011.5
20260505014204 5 0 0.0 0.0 0.00 0.00 0.00 67 1015.9
20260505014004 5 0 0.0 0.0 0.00 0.00 0.00 67 1015.9
20260505013904 13 117 0.0 0.0 0.00 0.00 0.00 66 1011.4
20260505013804 5 0 0.0 0.0 0.00 0.00 0.00 67 1015.9
20260505013604 5 0 0.0 0.0 0.00 0.00 0.00 67 1015.9
20260505013404 5 0 0.0 0.0 0.00 0.00 0.00 67 1015.9
20260505013204 5 0 0.0 0.0 0.00 0.00 0.00 67 1015.9
20260505013004 5 0 0.0 0.0 0.00 0.00 0.00 67 1015.9
20260505012603 5 0 0.0 0.0 0.00 0.00 0.00 67 1015.9
20260505012405 5 0 0.0 0.0 0.00 0.00 0.00 67 1015.9
20260505012203 5 0 0.0 0.0 0.00 0.00 0.00 67 1015.9
20260505012004 5 0 0.0 0.0 0.00 0.00 0.00 67 1015.9
20260505011904 13 117 0.0 0.0 0.00 0.00 0.00 65 1011.2
20260505011404 5 0 0.0 0.0 0.00 0.00 0.00 67 1015.9
20260505011004 5 0 0.0 0.0 0.00 0.00 0.00 67 1015.9
20260505010903 14 118 0.0 0.0 0.00 0.00 0.00 63 1011.0
20260505010805 5 0 0.0 0.0 0.00 0.00 0.00 67 1015.9
20260505010603 5 0 0.0 0.0 0.00 0.00 0.00 67 1015.9
20260505010403 5 0 0.0 0.0 0.00 0.00 0.00 67 1015.9
20260505010204 5 0 0.0 0.0 0.00 0.00 0.00 67 1015.9
20260505010003 5 0 0.0 0.0 0.00 0.00 0.00 67 1015.9
20260505005903 14 118 0.0 0.0 0.00 0.00 0.00 62 1010.9
20260505005804 5 0 0.0 0.0 0.00 0.00 0.00 67 1015.9
20260505005204 5 0 0.0 0.0 0.00 0.00 0.00 67 1015.9
20260505005004 5 0 0.0 0.0 0.00 0.00 0.00 67 1015.9
20260505004904 15 97 0.0 0.0 0.00 0.00 0.00 61 1010.9
20260505004804 5 0 0.0 0.0 0.00 0.00 0.00 67 1015.9
20260505004404 5 0 0.0 0.0 0.00 0.00 0.00 67 1015.9
20260505004204 5 0 0.0 0.0 0.00 0.00 0.00 67 1015.9
20260505004004 5 0 0.0 0.0 0.00 0.00 0.00 67 1015.9
20260505003905 15 117 0.0 0.0 0.00 0.00 0.00 60 1010.9
20260505003803 5 0 0.0 0.0 0.00 0.00 0.00 67 1015.9
20260505003604 5 0 0.0 0.0 0.00 0.00 0.00 67 1015.9
20260505003403 15 117 0.0 1.6 0.00 0.00 0.00 59 1011.0
20260505003204 5 0 0.0 0.0 0.00 0.00 0.00 67 1015.9
20260505003004 5 0 0.0 0.0 0.00 0.00 0.00 67 1015.9
20260505002903 15 115 0.0 0.0 0.00 0.00 0.00 59 1011.0
20260505002403 5 0 0.0 0.0 0.00 0.00 0.00 67 1015.9
20260505002204 5 0 0.0 0.0 0.00 0.00 0.00 67 1015.9
20260505002003 5 0 0.0 0.0 0.00 0.00 0.00 67 1015.9
20260505001903 16 115 0.0 0.0 0.00 0.00 0.00 57 1010.9
20260505001804 5 0 0.0 0.0 0.00 0.00 0.00 67 1015.9
20260505001404 5 0 0.0 0.0 0.00 0.00 0.00 67 1015.9
20260505001205 5 0 0.0 0.0 0.00 0.00 0.00 67 1015.9
20260505001004 5 0 0.0 0.0 0.00 0.00 0.00 67 1015.9
20260505000904 16 213 0.0 4.8 0.00 0.00 0.00 58 1010.9
20260505000804 5 0 0.0 0.0 0.00 0.00 0.00 67 1015.9
20260505000604 5 0 0.0 0.0 0.00 0.00 0.00 67 1015.9
20260505000405 5 0 0.0 0.0 0.00 0.00 0.00 67 1015.9
20260505000204 5 0 0.0 0.0 0.00 0.00 0.00 67 1015.9
20260505000003 5 0 0.0 0.0 0.00 0.00 0.00 67 1015.9
20260504235903 16 165 0.0 0.0 0.00 0.00 0.00 55 1010.9
20260504235603 5 0 0.0 0.0 0.00 0.00 0.00 67 1015.9
20260504235404 5 0 0.0 0.0 0.00 0.00 0.00 67 1015.9
20260504235203 5 0 0.0 0.0 0.00 0.00 0.00 67 1015.9
20260504235004 5 0 0.0 0.0 0.00 0.00 0.00 67 1015.9
20260504234905 17 107 0.0 0.0 0.00 0.00 0.00 56 1010.8
20260504234803 5 0 0.0 0.0 0.00 0.00 0.00 67 1015.9
20260504234604 5 0 0.0 0.0 0.00 0.00 0.00 67 1015.9
20260504234403 17 126 0.0 1.6 0.00 0.00 0.00 54 1010.9
20260504234204 5 0 0.0 0.0 0.00 0.00 0.00 67 1015.9
20260504234003 5 0 0.0 0.0 0.00 0.00 0.00 67 1015.9
20260504233903 17 126 0.0 4.8 0.00 0.00 0.00 53 1010.8
20260504233804 5 0 0.0 0.0 0.00 0.00 0.00 67 1015.9
20260504233604 5 0 0.0 0.0 0.00 0.00 0.00 67 1015.9
20260504233204 5 0 0.0 0.0 0.00 0.00 0.00 67 1015.9
20260504233004 5 0 0.0 0.0 0.00 0.00 0.00 67 1015.9
20260504232904 17 126 0.0 4.8 0.00 0.00 0.00 52 1010.8
20260504232604 5 0 0.0 0.0 0.00 0.00 0.00 67 1015.9
20260504232403 5 0 0.0 0.0 0.00 0.00 0.00 67 1015.9
20260504232204 5 0 0.0 0.0 0.00 0.00 0.00 67 1015.9
20260504232003 5 0 0.0 0.0 0.00 0.00 0.00 67 1015.9
20260504231804 5 0 0.0 0.0 0.00 0.00 0.00 67 1015.9
20260504231404 5 0 0.0 0.0 0.00 0.00 0.00 67 1015.9
20260504231203 5 0 0.0 0.0 0.00 0.00 0.00 67 1015.9
20260504231004 5 0 0.0 0.0 0.00 0.00 0.00 67 1015.9
20260504230903 18 152 0.0 4.8 0.00 0.00 0.00 51 1010.9
20260504230804 5 0 0.0 0.0 0.00 0.00 0.00 67 1015.9
20260504230404 18 145 0.0 3.2 0.00 0.00 0.00 48 1010.9
20260504230204 5 0 0.0 0.0 0.00 0.00 0.00 67 1015.9
20260504230003 5 0 0.0 0.0 0.00 0.00 0.00 67 1015.9
20260504225904 18 140 0.0 3.2 0.00 0.00 0.00 46 1010.9
20260504225805 5 0 0.0 0.0 0.00 0.00 0.00 67 1015.9
20260504225603 5 0 0.0 0.0 0.00 0.00 0.00 67 1015.9
20260504225203 5 0 0.0 0.0 0.00 0.00 0.00 67 1015.9
20260504225004 5 0 0.0 0.0 0.00 0.00 0.00 67 1015.9
20260504224903 18 119 0.0 1.6 0.00 0.00 0.00 49 1010.9
20260504224604 5 0 0.0 0.0 0.00 0.00 0.00 67 1015.9
20260504224404 19 119 0.0 0.0 0.00 0.00 0.00 45 1010.9
20260504224204 5 0 0.0 0.0 0.00 0.00 0.00 67 1015.9
20260504224004 5 0 0.0 0.0 0.00 0.00 0.00 67 1015.9
20260504223903 19 119 0.0 1.6 0.00 0.00 0.00 48 1010.8
20260504223604 5 0 0.0 0.0 0.00 0.00 0.00 67 1015.9
20260504223204 5 0 0.0 0.0 0.00 0.00 0.00 67 1015.9
20260504223004 5 0 0.0 0.0 0.00 0.00 0.00 67 1015.9
20260504222903 19 176 0.0 1.6 0.00 0.00 0.00 46 1010.8
20260504222803 5 0 0.0 0.0 0.00 0.00 0.00 67 1015.9
20260504222605 5 0 0.0 0.0 0.00 0.00 0.00 67 1015.9
20260504222404 5 0 0.0 0.0 0.00 0.00 0.00 67 1015.9
20260504222203 5 0 0.0 0.0 0.00 0.00 0.00 67 1015.9
20260504221903 20 104 0.0 1.6 0.00 0.00 0.00 45 1010.9
20260504221803 5 0 0.0 0.0 0.00 0.00 0.00 67 1015.9
20260504221605 5 0 0.0 0.0 0.00 0.00 0.00 67 1015.9
20260504221403 5 0 0.0 0.0 0.00 0.00 0.00 67 1015.9
20260504221204 5 0 0.0 0.0 0.00 0.00 0.00 67 1015.9
20260504221003 5 0 0.0 0.0 0.00 0.00 0.00 67 1015.9
20260504220904 20 193 1.6 11.3 0.00 0.00 0.00 42 1010.8
20260504220804 5 0 0.0 0.0 0.00 0.00 0.00 67 1015.9
20260504220605 5 0 0.0 0.0 0.00 0.00 0.00 67 1015.9
20260504220404 5 0 0.0 0.0 0.00 0.00 0.00 67 1015.9
20260504220203 5 0 0.0 0.0 0.00 0.00 0.00 67 1015.9
20260504220004 5 0 0.0 0.0 0.00 0.00 0.00 67 1015.9
20260504215803 5 0 0.0 0.0 0.00 0.00 0.00 67 1015.9
20260504215205 5 0 0.0 0.0 0.00 0.00 0.00 67 1015.9
20260504214903 20 109 1.6 9.7 0.00 0.00 0.00 46 1010.9
20260504214205 5 0 0.0 0.0 0.00 0.00 0.00 67 1015.9
20260504214004 5 0 0.0 0.0 0.00 0.00 0.00 67 1015.9
20260504213804 5 0 0.0 0.0 0.00 0.00 0.00 67 1015.9
20260504213604 5 0 0.0 0.0 0.00 0.00 0.00 67 1015.9
20260504213404 5 0 0.0 0.0 0.00 0.00 0.00 67 1015.9
20260504213204 5 0 0.0 0.0 0.00 0.00 0.00 67 1015.9
20260504212905 21 64 0.0 3.2 0.00 0.00 0.00 41 1010.9
20260504212404 21 150 0.0 11.3 0.00 0.00 0.00 44 1010.8
20260504212204 5 0 0.0 0.0 0.00 0.00 0.00 67 1015.9
20260504212003 5 0 0.0 0.0 0.00 0.00 0.00 67 1015.9
20260504211903 21 115 0.0 4.8 0.00 0.00 0.00 42 1010.9
20260504211804 5 0 0.0 0.0 0.00 0.00 0.00 67 1015.9
20260504211603 5 0 0.0 0.0 0.00 0.00 0.00 67 1015.9
20260504211404 5 0 0.0 0.0 0.00 0.00 0.00 67 1015.9
20260504211203 5 0 0.0 0.0 0.00 0.00 0.00 67 1015.9
20260504210904 21 194 0.0 11.3 0.00 0.00 0.00 40 1010.8
20260504210804 5 0 0.0 0.0 0.00 0.00 0.00 67 1015.9
20260504210604 5 0 0.0 0.0 0.00 0.00 0.00 67 1015.9
20260504210204 5 0 0.0 0.0 0.00 0.00 0.00 67 1015.9
20260504210005 5 0 0.0 0.0 0.00 0.00 0.00 67 1015.9
20260504205903 21 82 0.0 4.8 0.00 0.00 0.00 44 1010.9
20260504205804 5 0 0.0 0.0 0.00 0.00 0.00 67 1015.9
20260504205605 5 0 0.0 0.0 0.00 0.00 0.00 67 1015.9
20260504205405 5 0 0.0 0.0 0.00 0.00 0.00 67 1015.9
20260504205004 5 0 0.0 0.0 0.00 0.00 0.00 67 1015.9
20260504204903 21 128 0.0 14.5 0.00 0.00 0.00 41 1011.0
20260504204803 5 0 0.0 0.0 0.00 0.00 0.00 67 1015.9
20260504204604 5 0 0.0 0.0 0.00 0.00 0.00 67 1015.9
20260504204404 21 163 0.0 14.5 0.00 0.00 0.00 39 1011.1
20260504204204 5 0 0.0 0.0 0.00 0.00 0.00 67 1015.9
20260504204004 5 0 0.0 0.0 0.00 0.00 0.00 67 1015.9
20260504203804 5 0 0.0 0.0 0.00 0.00 0.00 67 1015.9
20260504203604 5 0 0.0 0.0 0.00 0.00 0.00 67 1015.9
20260504203403 22 256 0.0 4.8 0.00 0.00 0.00 39 1011.1
20260504203204 5 0 0.0 0.0 0.00 0.00 0.00 67 1015.9
20260504202904 22 122 1.6 9.7 0.00 0.00 0.00 38 1011.1
20260504202605 5 0 0.0 0.0 0.00 0.00 0.00 67 1015.9
20260504202404 22 305 0.0 4.8 0.00 0.00 0.00 37 1011.2
20260504202204 5 0 0.0 0.0 0.00 0.00 0.00 67 1015.9
20260504201903 22 116 0.0 4.8 0.00 0.00 0.00 40 1011.2
20260504201804 5 0 0.0 0.0 0.00 0.00 0.00 67 1015.9
20260504201604 5 0 0.0 0.0 0.00 0.00 0.00 67 1015.9
20260504201404 5 0 0.0 0.0 0.00 0.00 0.00 67 1015.9
20260504201203 5 0 0.0 0.0 0.00 0.00 0.00 67 1015.9
20260504201004 5 0 0.0 0.0 0.00 0.00 0.00 67 1015.9
20260504200903 23 274 0.0 3.2 0.00 0.00 0.00 40 1011.3
20260504200803 5 0 0.0 0.0 0.00 0.00 0.00 67 1015.9
20260504200604 5 0 0.0 0.0 0.00 0.00 0.00 67 1015.9
20260504200404 23 163 0.0 4.8 0.00 0.00 0.00 38 1011.3
20260504200204 5 0 0.0 0.0 0.00 0.00 0.00 67 1015.9
20260504200004 5 0 0.0 0.0 0.00 0.00 0.00 67 1015.9
20260504195903 23 285 0.0 4.8 0.00 0.00 0.00 35 1011.5
20260504195805 5 0 0.0 0.0 0.00 0.00 0.00 67 1015.9
20260504195603 5 0 0.0 0.0 0.00 0.00 0.00 67 1015.9
20260504195404 5 0 0.0 0.0 0.00 0.00 0.00 67 1015.9
20260504195004 5 0 0.0 0.0 0.00 0.00 0.00 67 1015.9
20260504194904 23 126 0.0 1.6 0.00 0.00 0.00 35 1011.6
20260504194805 5 0 0.0 0.0 0.00 0.00 0.00 67 1015.9
20260504194605 5 0 0.0 0.0 0.00 0.00 0.00 67 1015.9
20260504194404 5 0 0.0 0.0 0.00 0.00 0.00 67 1015.9
20260504194004 5 0 0.0 0.0 0.00 0.00 0.00 67 1015.9
20260504193805 5 0 0.0 0.0 0.00 0.00 0.00 67 1015.9
20260504193204 5 0 0.0 0.0 0.00 0.00 0.00 67 1015.9
20260504193004 5 0 0.0 0.0 0.00 0.00 0.00 67 1015.9
20260504192904 23 120 0.0 3.2 0.00 0.00 0.00 38 1011.9
20260504192804 5 0 0.0 0.0 0.00 0.00 0.00 67 1015.9
20260504192605 5 0 0.0 0.0 0.00 0.00 0.00 67 1015.9
20260504192404 5 0 0.0 0.0 0.00 0.00 0.00 67 1015.9
20260504192204 5 0 0.0 0.0 0.00 0.00 0.00 67 1015.9
20260504192004 5 0 0.0 0.0 0.00 0.00 0.00 67 1015.9
20260504191904 23 310 1.6 16.1 0.00 0.00 0.00 33 1012.2
20260504191805 5 0 0.0 0.0 0.00 0.00 0.00 67 1015.9
20260504191404 23 281 0.0 14.5 0.00 0.00 0.00 34 1012.2
20260504191204 5 0 0.0 0.0 0.00 0.00 0.00 67 1015.9
20260504190904 23 238 1.6 19.3 0.00 0.00 0.00 35 1012.2
20260504190803 5 0 0.0 0.0 0.00 0.00 0.00 67 1015.9
20260504190604 5 0 0.0 0.0 0.00 0.00 0.00 67 1015.9
20260504190404 23 246 0.0 16.1 0.00 0.00 0.00 37 1012.4
20260504190205 5 0 0.0 0.0 0.00 0.00 0.00 67 1015.9
20260504190004 5 0 0.0 0.0 0.00 0.00 0.00 67 1015.9
20260504185903 23 271 1.6 16.1 0.00 0.00 0.00 35 1012.5
20260504185804 5 0 0.0 0.0 0.00 0.00 0.00 67 1015.9
20260504185404 5 0 0.0 0.0 0.00 0.00 0.00 67 1015.9
20260504185204 5 0 0.0 0.0 0.00 0.00 0.00 67 1015.9
20260504184604 5 0 0.0 0.0 0.00 0.00 0.00 67 1015.9
20260504184404 23 168 0.0 4.8 0.00 0.00 0.00 36 1012.7
20260504184204 5 0 0.0 0.0 0.00 0.00 0.00 67 1015.9
20260504184004 5 0 0.0 0.0 0.00 0.00 0.00 67 1015.9
20260504183904 23 325 3.2 14.5 0.00 0.00 0.00 32 1012.8
20260504183804 5 0 0.0 0.0 0.00 0.00 0.00 67 1015.9
20260504183404 5 0 0.0 0.0 0.00 0.00 0.00 67 1015.9
20260504182805 5 0 0.0 0.0 0.00 0.00 0.00 67 1015.9
20260504182604 5 0 0.0 0.0 0.00 0.00 0.00 67 1015.9
20260504181903 23 296 1.6 11.3 0.00 0.00 0.00 33 1012.8
20260504181805 5 0 0.0 0.0 0.00 0.00 0.00 67 1015.9
20260504181604 5 0 0.0 0.0 0.00 0.00 0.00 67 1015.9
20260504181404 5 0 0.0 0.0 0.00 0.00 0.00 67 1015.9
20260504181204 5 0 0.0 0.0 0.00 0.00 0.00 67 1015.9
20260504181003 5 0 0.0 0.0 0.00 0.00 0.00 67 1015.9
20260504180903 23 314 3.2 16.1 0.00 0.00 0.00 34 1012.9
20260504180802 5 0 0.0 0.0 0.00 0.00 0.00 67 1015.9
20260504180602 5 0 0.0 0.0 0.00 0.00 0.00 67 1015.9
20260504180202 5 0 0.0 0.0 0.00 0.00 0.00 67 1015.9
20260504180002 5 0 0.0 0.0 0.00 0.00 0.00 67 1015.9
20260504175902 23 66 0.0 4.8 0.00 0.00 0.00 34 1013.1
20260504175802 5 0 0.0 0.0 0.00 0.00 0.00 67 1015.9
20260504175602 5 0 0.0 0.0 0.00 0.00 0.00 67 1015.9
20260504175402 5 0 0.0 0.0 0.00 0.00 0.00 67 1015.9
20260504175201 5 0 0.0 0.0 0.00 0.00 0.00 67 1015.9
20260504175002 5 0 0.0 0.0 0.00 0.00 0.00 67 1015.9
20260504174902 22 210 0.0 9.7 0.00 0.00 0.00 36 1013.2
20260504174802 5 0 0.0 0.0 0.00 0.00 0.00 67 1015.9
20260504174202 5 0 0.0 0.0 0.00 0.00 0.00 67 1015.9
20260504174002 5 0 0.0 0.0 0.00 0.00 0.00 67 1015.9
20260504173902 22 292 0.0 0.0 0.00 0.00 0.00 36 1013.3
20260504173802 5 0 0.0 0.0 0.00 0.00 0.00 67 1015.9
20260504173602 5 0 0.0 0.0 0.00 0.00 0.00 67 1015.9
20260504173403 5 0 0.0 0.0 0.00 0.00 0.00 67 1015.9
20260504173204 5 0 0.0 0.0 0.00 0.00 0.00 67 1015.9
20260504173002 5 0 0.0 0.0 0.00 0.00 0.00 67 1015.9
20260504172902 22 196 0.0 4.8 0.00 0.00 0.00 37 1013.5
20260504172802 5 0 0.0 0.0 0.00 0.00 0.00 67 1015.9
20260504172601 5 0 0.0 0.0 0.00 0.00 0.00 67 1015.9
20260504172002 5 0 0.0 0.0 0.00 0.00 0.00 67 1015.9
20260504171902 22 213 0.0 4.8 0.00 0.00 0.00 40 1013.6
20260504171802 5 0 0.0 0.0 0.00 0.00 0.00 67 1015.9
20260504171402 5 0 0.0 0.0 0.00 0.00 0.00 67 1015.9
20260504171203 5 0 0.0 0.0 0.00 0.00 0.00 67 1015.9
20260504171002 5 0 0.0 0.0 0.00 0.00 0.00 67 1015.9
20260504170902 22 53 0.0 4.8 0.00 0.00 0.00 39 1013.7
20260504170802 5 0 0.0 0.0 0.00 0.00 0.00 67 1015.9
20260504170402 5 0 0.0 0.0 0.00 0.00 0.00 67 1015.9
20260504170202 5 0 0.0 0.0 0.00 0.00 0.00 67 1015.9
20260504160202 5 0 0.0 0.0 0.00 0.00 0.00 67 1015.9
20260504151002 5 0 0.0 0.0 0.00 0.00 0.00 67 1015.9
20260504150902 18 309 1.6 12.9 0.00 0.00 0.00 43 1015.2
20260504150801 5 0 0.0 0.0 0.00 0.00 0.00 67 1015.9
20260504150602 5 0 0.0 0.0 0.00 0.00 0.00 67 1015.9
20260504150402 18 259 0.0 3.2 0.00 0.00 0.00 41 1015.3
20260504150202 5 0 0.0 0.0 0.00 0.00 0.00 67 1015.9